[[{"header":{"parameterUnit":"m.s-1","parameterCategory":1,"la1":30.2991,"la2":30.254,"lo1":-89.0895,"lo2":-89.0444,"dy":0.0017,"dx":0.0017,"nx":28,"ny":28,"refTime":"2024-05-02T09:00:00:Z","depth":0,"parameterNumber":2,"parameterNumberName":"U-component_of_WINDS"},"data":[0,0,0,0,0,0,0,0,0,0,0,0,0,0,0,0,0,0,0,0,0,0,0,0,0,0,0,0,0,0,0,0,0,0,0,0,0,0,0,0,0,0,0,0,0,0,0,0,0,0,0,0,0,0,0,0,0,0,-0.3177,-0.3176,0,-0.3144,-0.3144,-0.3143,-0.312,-0.312,-0.312,-0.3119,-0.3086,-0.3085,-0.3085,0,0,0,0,0,0,0,0,0,0,0,0,0,-0.3219,-0.3219,-0.3177,-0.3176,-0.3176,-0.3144,-0.3144,-0.3143,-0.312,-0.312,-0.3119,-0.3119,-0.3086,-0.3086,-0.3085,0,0,0,0,0,0,0,0,0,0,0,0,0,-0.3195,-0.3219,-0.3177,-0.316,-0.3159,-0.3144,-0.3144,-0.3143,-0.312,-0.312,-0.3119,-0.3119,-0.3087,-0.3086,-0.3085,-0.3084,0,0,-0.3081,-0.3081,0,0,0,0,0,0,0,0,-0.3197,-0.3194,-0.3163,-0.3161,-0.3159,-0.3136,-0.3147,-0.3123,-0.312,-0.3135,-0.3119,-0.3119,-0.3103,-0.31,-0.3095,-0.3082,-0.3081,-0.3081,-0.3081,-0.308,-0.308,0,0,0,0,0,0,0,-0.3198,-0.3195,-0.3164,-0.3163,-0.316,-0.3155,-0.3151,-0.3142,-0.3121,-0.3133,-0.3132,-0.3128,-0.3102,-0.3096,-0.3094,-0.3081,-0.3081,-0.308,-0.308,-0.3079,-0.3067,-0.3067,0,0,0,0,0,0,-0.3203,-0.3197,-0.3165,-0.3163,-0.3178,-0.3154,-0.315,-0.3144,-0.3121,-0.3117,-0.3128,-0.3127,-0.3098,-0.3095,-0.3093,-0.3091,-0.308,-0.3079,-0.3079,-0.3067,-0.3067,-0.3067,0,0,0,0,0,0,-0.3204,-0.32,-0.3166,-0.3179,-0.3174,-0.3154,-0.3147,-0.3143,-0.3137,-0.3117,-0.3113,-0.3126,-0.3098,-0.3094,-0.3087,-0.309,-0.3079,-0.3078,-0.3066,-0.3067,-0.3067,-0.3088,0,0,0,0,0,0,-0.3205,-0.32,-0.32,-0.3179,-0.3174,-0.316,-0.3147,-0.3143,-0.3136,-0.3134,-0.3114,-0.3111,-0.3097,-0.3088,-0.3086,-0.3088,-0.3077,-0.3066,-0.3066,-0.3067,-0.3087,-0.3089,-0.3091,0,0,0,0,0,-0.3207,-0.3207,-0.32,-0.3196,-0.3173,-0.316,-0.3157,-0.3142,-0.3136,-0.3135,-0.3123,-0.3111,-0.309,-0.3088,-0.3084,-0.3087,-0.3066,-0.3066,-0.3067,-0.3086,-0.3089,-0.3091,0,0,0,0,0,0,-0.3228,-0.3204,-0.3196,-0.3189,-0.3177,-0.3157,-0.3155,-0.3145,-0.3134,-0.3133,-0.3114,-0.311,-0.3104,-0.3095,-0.3093,-0.3086,-0.3076,-0.3076,-0.3092,-0.3094,-0.3096,-0.3099,-0.3076,0,0,0,0,0,-0.3232,-0.3224,-0.3203,-0.3199,-0.3194,-0.3176,-0.317,-0.3159,-0.3146,-0.314,-0.3127,-0.3114,-0.3105,-0.3099,-0.3089,-0.3085,-0.3081,-0.3085,-0.3088,-0.3089,-0.309,-0.3088,-0.309,-0.307,-0.307,-0.3069,0,0,-0.324,-0.3226,-0.3222,-0.3203,-0.3193,-0.3185,-0.3171,-0.3164,-0.3158,-0.3139,-0.3131,-0.3121,-0.3106,-0.3101,-0.3097,-0.3092,-0.3094,-0.309,-0.3092,-0.3091,-0.3089,-0.3091,-0.3092,-0.307,-0.307,-0.307,0,0,-0.3251,-0.3239,-0.3235,-0.3225,-0.3209,-0.3197,-0.3196,-0.3177,-0.317,-0.3161,-0.3147,-0.3141,-0.3124,-0.3115,-0.3107,-0.3116,-0.3106,-0.3113,-0.3124,-0.3122,-0.3124,-0.3125,-0.3129,-0.313,-0.3114,-0.3114,-0.3114,0,-0.3263,-0.3251,-0.3234,-0.3228,-0.3221,-0.3203,-0.3199,-0.319,-0.3172,-0.3168,-0.3162,-0.3142,-0.3131,-0.3123,-0.3126,-0.312,-0.3119,-0.3115,-0.3125,-0.3126,-0.3127,-0.313,-0.3132,-0.3115,-0.3115,-0.3114,-0.3114,0,-0.3266,-0.3259,-0.3257,-0.324,-0.3233,-0.3228,-0.3211,-0.3206,-0.3196,-0.3185,-0.3177,-0.3163,-0.3151,-0.3148,-0.3138,-0.3139,-0.3137,-0.3128,-0.3119,-0.313,-0.3133,-0.3134,-0.3116,-0.3116,-0.3116,-0.3115,0,0,-0.3289,-0.3264,-0.3264,-0.3257,-0.3238,-0.3232,-0.3226,-0.3214,-0.321,-0.3199,-0.3194,-0.3181,-0.3174,-0.3166,-0.3155,-0.3153,-0.3162,-0.3145,-0.3145,-0.3149,-0.3163,-0.317,-0.3172,-0.3155,-0.3155,-0.3155,-0.3165,0,-0.3298,-0.3287,-0.3272,-0.3266,-0.3259,-0.3243,-0.3239,-0.3227,-0.3217,-0.321,-0.3198,-0.319,-0.318,-0.3176,-0.3174,-0.3161,-0.3165,-0.316,-0.3151,-0.3151,-0.3156,-0.3173,-0.318,-0.319,-0.3166,-0.3166,-0.3166,0,-0.3306,-0.3295,-0.3289,-0.3272,-0.3269,-0.3265,-0.3253,-0.3246,-0.3233,-0.3226,-0.3218,-0.3206,-0.32,-0.3191,-0.3183,-0.3181,-0.3176,-0.317,-0.317,-0.3169,-0.3159,-0.3173,-0.3192,-0.3194,-0.3168,-0.3168,-0.3167,0,-0.3324,-0.3308,-0.3303,-0.3297,-0.3277,-0.3274,-0.3266,-0.3253,-0.3247,-0.3237,-0.3233,-0.3222,-0.3216,-0.3208,-0.3194,-0.3189,-0.3188,-0.3178,-0.3182,-0.3183,-0.3183,-0.3183,-0.3202,-0.3179,-0.3179,-0.3179,-0.3179,0,-0.3335,-0.3332,-0.3311,-0.3307,-0.3303,-0.3287,-0.3284,-0.3274,-0.3263,-0.3258,-0.3243,-0.3239,-0.322,-0.3214,-0.3203,-0.3198,-0.3195,-0.319,-0.3187,-0.3191,-0.3192,-0.3188,-0.3187,-0.318,-0.318,-0.3179,-0.3179,0,-0.3355,-0.334,-0.3333,-0.3315,-0.331,-0.3309,-0.3293,-0.329,-0.3279,-0.3273,-0.327,-0.3253,-0.3245,-0.323,-0.3217,-0.321,-0.3208,-0.3203,-0.3213,-0.3211,-0.3216,-0.3216,-0.3234,-0.3236,-0.3211,-0.3211,-0.3212,0,-0.3363,-0.336,-0.3342,-0.3337,-0.333,-0.3323,-0.3317,-0.3301,-0.3295,-0.3281,-0.3279,-0.327,-0.3261,-0.3249,-0.3236,-0.3226,-0.3221,-0.3228,-0.322,-0.3224,-0.3222,-0.3223,-0.3223,-0.323,-0.323,-0.3231,-0.3231,0,-0.3379,-0.3372,-0.3364,-0.3354,-0.3347,-0.3338,-0.3328,-0.3326,-0.3308,-0.3302,-0.3294,-0.3287,-0.3275,-0.3266,-0.3255,-0.3247,-0.3236,-0.3234,-0.3234,-0.3239,-0.3245,-0.3243,-0.3218,-0.3233,-0.3233,-0.3233,-0.3233,-0.3233,-0.3393,-0.3391,-0.3378,-0.337,-0.3361,-0.3352,-0.3348,-0.3337,-0.333,-0.3319,-0.331,-0.3302,-0.329,-0.3274,-0.3267,-0.3261,-0.3256,-0.3256,-0.3257,-0.3257,-0.3259,-0.3246,-0.3259,-0.3259,-0.3258,-0.3258,-0.3258,0,-0.341,-0.3401,-0.3393,-0.338,-0.3374,-0.3365,-0.3354,-0.3349,-0.3343,-0.3333,-0.3325,-0.3316,-0.3307,-0.3294,-0.3285,-0.3283,-0.3278,-0.3281,-0.3281,-0.3279,-0.3264,-0.3265,-0.3285,-0.3285,-0.3285,-0.3285,-0.3285,-0.3285,-0.3417,-0.3413,-0.3404,-0.3395,-0.3386,-0.3379,-0.3374,-0.3366,-0.3358,-0.3348,-0.3341,-0.3333,-0.3321,-0.3311,-0.3303,-0.33,-0.3297,-0.3302,-0.3297,-0.3283,-0.328,-0.3278,-0.3279,-0.3301,-0.3302,-0.3313,-0.3313,-0.3313]},{"header":{"parameterUnit":"m.s-1","parameterCategory":1,"la1":30.2991,"la2":30.254,"lo1":-89.0895,"lo2":-89.0444,"dy":0.0017,"dx":0.0017,"nx":28,"ny":28,"refTime":"2024-05-02T09:00:00:Z","depth":0,"parameterNumber":3,"parameterNumberName":"V-component_of_WINDS"},"data":[0,0,0,0,0,0,0,0,0,0,0,0,0,0,0,0,0,0,0,0,0,0,0,0,0,0,0,0,0,0,0,0,0,0,0,0,0,0,0,0,0,0,0,0,0,0,0,0,0,0,0,0,0,0,0,0,0,0,3.0086,3.0086,0,3.0123,3.0124,3.0124,3.011,3.0109,3.0108,3.0107,3.0143,3.0145,3.0146,0,0,0,0,0,0,0,0,0,0,0,0,0,3.0,3.0001,3.0086,3.0086,3.0087,3.0123,3.0124,3.0124,3.011,3.0109,3.0108,3.0107,3.0142,3.0144,3.0147,0,0,0,0,0,0,0,0,0,0,0,0,0,3.0037,3.0002,3.0086,3.0084,3.0084,3.0123,3.0124,3.0124,3.011,3.0109,3.0108,3.0106,3.0142,3.0144,3.0147,3.0189,0,0,3.0155,3.0156,0,0,0,0,0,0,0,0,3.0035,3.004,3.0084,3.0084,3.0085,3.0111,3.0106,3.0146,3.0111,3.01,3.0107,3.0106,3.0133,3.0136,3.0146,3.019,3.0192,3.0155,3.0157,3.0158,3.0158,0,0,0,0,0,0,0,3.0032,3.0039,3.0101,3.0085,3.0085,3.0081,3.0085,3.0114,3.0123,3.0101,3.01,3.0105,3.0133,3.0144,3.0147,3.0192,3.0155,3.0157,3.0159,3.016,3.0272,3.0274,0,0,0,0,0,0,3.003,3.0036,3.0099,3.0102,3.0056,3.0083,3.0088,3.0104,3.0123,3.0125,3.0106,3.0104,3.014,3.0144,3.0148,3.0198,3.0158,3.016,3.0162,3.0271,3.0273,3.0274,0,0,0,0,0,0,3.0028,3.0036,3.0098,3.0069,3.0076,3.0086,3.0104,3.0105,3.0116,3.0127,3.0128,3.0115,3.0139,3.0144,3.0179,3.0199,3.0161,3.0164,3.0269,3.0272,3.0273,3.0298,0,0,0,0,0,0,3.0026,3.0035,3.0052,3.0069,3.0078,3.0129,3.0105,3.0107,3.012,3.0118,3.0136,3.0137,3.0138,3.0175,3.0181,3.0202,3.0166,3.0268,3.027,3.0273,3.0295,3.0301,3.0305,0,0,0,0,0,3.0023,3.0057,3.0053,3.006,3.0099,3.013,3.0135,3.0136,3.0122,3.0138,3.0146,3.0137,3.0196,3.0179,3.0186,3.0207,3.0266,3.027,3.0273,3.0293,3.03,3.0305,0,0,0,0,0,0,3.004,3.0059,3.0055,3.0095,3.0111,3.0128,3.0148,3.0143,3.0162,3.0159,3.0159,3.0163,3.0199,3.0207,3.0187,3.0249,3.0229,3.0234,3.0242,3.0248,3.0253,3.025,3.0168,0,0,0,0,0,3.0049,3.0073,3.0088,3.0122,3.0131,3.0138,3.0152,3.0151,3.0167,3.0174,3.0183,3.0199,3.0221,3.0235,3.0256,3.0297,3.03,3.0315,3.032,3.0324,3.0328,3.035,3.0356,3.0285,3.0285,3.0285,0,0,3.0067,3.008,3.0095,3.0126,3.0139,3.0163,3.0144,3.017,3.0188,3.0177,3.0211,3.0219,3.0235,3.0273,3.029,3.0281,3.0349,3.0328,3.0331,3.0333,3.0354,3.036,3.0366,3.0287,3.0286,3.0286,0,0,3.0112,3.0125,3.0155,3.0167,3.0187,3.0191,3.0199,3.0216,3.0221,3.0255,3.0247,3.0268,3.0306,3.0318,3.033,3.038,3.0372,3.0387,3.0412,3.0433,3.0439,3.0444,3.0461,3.0467,3.0391,3.0391,3.0391,0,3.0131,3.0168,3.017,3.0198,3.0211,3.0204,3.0234,3.0246,3.0271,3.028,3.0269,3.0317,3.0328,3.0368,3.0381,3.039,3.0398,3.0384,3.0438,3.0443,3.0448,3.0464,3.0471,3.0392,3.0392,3.0392,3.0392,0,3.0191,3.0217,3.0239,3.0264,3.028,3.0308,3.0314,3.033,3.0329,3.0334,3.0368,3.0382,3.0405,3.0415,3.0413,3.0455,3.0448,3.0438,3.0418,3.0456,3.0471,3.0478,3.0395,3.0394,3.0393,3.0393,0,0,3.0247,3.0273,3.0281,3.0292,3.0313,3.0333,3.0361,3.0385,3.0398,3.0416,3.0439,3.0471,3.0462,3.0475,3.0475,3.0493,3.0532,3.0481,3.0481,3.0489,3.0578,3.0585,3.0592,3.0527,3.0529,3.053,3.0576,0,3.0293,3.0343,3.0346,3.0391,3.0414,3.0408,3.0432,3.0447,3.0454,3.0474,3.0481,3.0504,3.049,3.0498,3.0516,3.0523,3.0549,3.052,3.0548,3.0549,3.0543,3.0601,3.0608,3.0652,3.0582,3.0584,3.0584,0,3.0353,3.0374,3.0421,3.0439,3.0449,3.0471,3.0492,3.0512,3.0529,3.0532,3.0547,3.0544,3.0572,3.0552,3.0591,3.057,3.0582,3.0587,3.0589,3.0591,3.0568,3.0603,3.0666,3.0672,3.0594,3.0593,3.0592,0,3.0389,3.0428,3.0461,3.0471,3.0492,3.0508,3.0517,3.0533,3.0547,3.0566,3.0575,3.0597,3.0609,3.0625,3.0628,3.0614,3.0666,3.0647,3.0669,3.0669,3.068,3.0679,3.0744,3.0689,3.0689,3.0688,3.0688,0,3.0439,3.0468,3.0477,3.0498,3.053,3.0533,3.0564,3.0573,3.0587,3.0608,3.0604,3.0624,3.0627,3.0648,3.0651,3.0681,3.0687,3.069,3.069,3.069,3.0689,3.0696,3.0693,3.069,3.069,3.0689,3.0689,0,3.0484,3.0491,3.0527,3.0545,3.055,3.0573,3.0587,3.0607,3.0613,3.064,3.0646,3.0656,3.068,3.0685,3.0713,3.0715,3.0751,3.0749,3.0746,3.0745,3.0767,3.0765,3.0839,3.0848,3.0788,3.0788,3.0789,0,3.0515,3.0538,3.0558,3.0572,3.0583,3.0606,3.0621,3.0624,3.0639,3.0661,3.0677,3.0701,3.072,3.0759,3.0768,3.0789,3.0787,3.0811,3.079,3.0789,3.0786,3.0785,3.0787,3.0815,3.0816,3.0816,3.0817,0,3.057,3.0573,3.0594,3.0617,3.0635,3.0653,3.067,3.0682,3.0688,3.0705,3.073,3.0745,3.0774,3.0798,3.0819,3.0828,3.0823,3.0824,3.083,3.0829,3.0826,3.0827,3.0756,3.0821,3.0821,3.0821,3.082,3.082,3.0608,3.0628,3.0645,3.0669,3.0683,3.0699,3.0718,3.0727,3.0748,3.0773,3.0773,3.0801,3.0817,3.0845,3.0856,3.0877,3.0869,3.0878,3.088,3.0882,3.0884,3.0824,3.0881,3.0881,3.0881,3.088,3.088,0,3.0662,3.0674,3.0696,3.072,3.0739,3.0734,3.0752,3.0768,3.0792,3.0808,3.0827,3.0856,3.0879,3.089,3.0912,3.0927,3.0925,3.0933,3.0931,3.0933,3.089,3.0882,3.0934,3.0934,3.0934,3.0934,3.0934,3.0934,3.0693,3.0725,3.073,3.0769,3.078,3.0807,3.0818,3.0832,3.0845,3.0877,3.0897,3.0904,3.0918,3.0941,3.0962,3.0964,3.0972,3.0981,3.0982,3.0942,3.0936,3.0931,3.0923,3.0983,3.0983,3.1023,3.1024,3.1024]}]]